Volver al catálogo

COSMOS 510

ActivoMilitarLEO
NORAD 6123·PAYLOAD·🇷🇺 Russia

Lanzado Jul 20, 1972 desde Plesetsk Cosmodrome

Loading…

Próximos Pases (próximas 24 horas)

TLE

ActualizadoSource: Space-Track

Época: Sep 14, 2026, 14:23 UTC

1 06123U 72057G   26257.59931981 -.00000011  00000-0  32980-4 0  9999
2 06123  74.0266 294.7514 0008862 187.7677 340.4896 12.41075821453409

Sigue COSMOS 510 en tiempo real con AllMySat

Download on the App Store